Regional Weather Roundup
Issued by NWS

Home | Current Version | Previous Version | Text Only | Print | Product List | Glossary On
Versions: 1 2 3 4 5 6 7 8 9 10 11 12 13 14 15 16 17 18 19 20 21 22 23 24 25 26 27 28 29 30 31 32 33 34 35 36 37 38 39 40 41 42 43 44 45 46 47 48 49 50
000
ASUS43 KDTX 230610
RWRMI
MICHIGAN HOURLY REGIONAL WEATHER ROUNDUP
NATIONAL WEATHER SERVICE DETROIT/PONTIAC MI
200 AM EDT TUE MAY 23 2017

NOTE: "FAIR" INDICATES FEW OR NO CLOUDS BELOW 12,000 FEET WITH NO
SIGNIFICANT WEATHER AND/OR OBSTRUCTION TO VISIBILITY.

MIZ047>049-052>055-059>063-066>070-074>076-081>083-230700-
SOUTHEAST LOWER MICHIGAN

CITY           SKY/WX    TMP DP  RH WIND       PRES   REMARKS
ADRIAN         PTCLDY    54  47  77 S5        29.95F
6HR MIN TEMP:  54; 6HR MAX TEMP:  67;

ALMA           CLOUDY    57  50  77 S8        29.88F
ANN ARBOR      CLOUDY    57  50  77 S5        29.93F
BAD AXE        CLOUDY    56  48  74 S7        29.88F
6HR MIN TEMP:  55; 6HR MAX TEMP:  63;

CARO           CLOUDY    60  48  66 SW9       29.88S
DETROIT CITY   CLOUDY    61  48  62 SW6       29.93F
6HR MIN TEMP:  59; 6HR MAX TEMP:  68;

DETROIT        CLOUDY    59  49  69 S6        29.94F
6HR MIN TEMP:  57; 6HR MAX TEMP:  68;

FLINT          CLEAR     61  47  59 SW8       29.90F
6HR MIN TEMP:  58; 6HR MAX TEMP:  64;

GROSSE ILE     CLOUDY    60  55  85 S8        29.93F
6HR MIN TEMP:  59; 6HR MAX TEMP:  67;

HILLSDALE      CLEAR     54  46  76 S6        29.93F
HOWELL         PTCLDY    59  46  61 SW5       29.91F
6HR MIN TEMP:  59; 6HR MAX TEMP:  64;


CITY           SKY/WX    TMP DP  RH WIND       PRES   REMARKS
JACKSON        CLOUDY    60  48  64 SW7       29.92F
6HR MIN TEMP:  60; 6HR MAX TEMP:  66;

LAMBERTVILLE   CLEAR     56  48  76 S3        29.94F
6HR MIN TEMP:  54; 6HR MAX TEMP:  67;

LANSING        CLOUDY    61  47  59 S8        29.91S
6HR MIN TEMP:  60; 6HR MAX TEMP:  66;

LAPEER         FAIR      60  46  59 SW7       29.91S
6HR MIN TEMP:  52; 6HR MAX TEMP:  64;

MASON          PTCLDY    61  49  65 S3        29.91F
MONROE         CLOUDY    57  47  70 S3        29.93F
6HR MIN TEMP:  56; 6HR MAX TEMP:  68;

MT. CLEMENS    CLOUDY    55  52  92 S5        29.91F
6HR MIN TEMP:  53; 6HR MAX TEMP:  68;

PONTIAC        CLOUDY    61  47  59 SW7       29.91F
6HR MIN TEMP:  59; 6HR MAX TEMP:  65;

PORT HOPE        N/A     55  52  89 CALM      29.87F
6HR MIN TEMP:  54; 6HR MAX TEMP:  65; 6HR PCP:  0.01;

PORT HURON     MOCLDY    54  48  82 S3        29.93F
TRI CITIES     MOCLDY    60  50  69 SW9       29.88F
6HR MIN TEMP:  59; 6HR MAX TEMP:  64;

MIDLAND        CLOUDY    55  49  79 CALM      29.87S
6HR MIN TEMP:  55; 6HR MAX TEMP:  65;

TROY           CLOUDY    62  45  53 SW6       29.94F
SAGINAW HB     MOCLDY    61  45  55 S9        29.87F
$$
MIZ043>046-050>051-056>058-064>065-071>073-077>080-230700-
SOUTHWEST LOWER MICHIGAN

CITY           SKY/WX    TMP DP  RH WIND       PRES   REMARKS
BATTLE CREEK   CLOUDY    60  50  69 S9        29.92S
6HR MIN TEMP:  60; 6HR MAX TEMP:  66;

BENTON HARBOR  CLOUDY    60  50  69 SW5       29.89F
6HR MIN TEMP:  60; 6HR MAX TEMP:  71;

BIG RAPIDS     CLOUDY    53  50  90 SW3       29.86S
6HR MIN TEMP:  53; 6HR MAX TEMP:  59; 6HR PCP:  0.09;

COLDWATER      CLOUDY    58  50  73 CALM      29.93F
6HR MIN TEMP:  58; 6HR MAX TEMP:  66;

FREMONT        MOCLDY    56  52  88 SW7       29.86S
HOLLAND        CLOUDY    59  52  77 SW10      29.89F
6HR MIN TEMP:  59; 6HR MAX TEMP:  67; 6HR PCP: TRACE;

GRAND RAPIDS   CLOUDY    62  52  69 SW14      29.88F
6HR MIN TEMP:  61; 6HR MAX TEMP:  66;

IONIA          FAIR      60  48  64 S7        29.88S
6HR MIN TEMP:  57; 6HR MAX TEMP:  65;

KALAMAZOO      CLOUDY    60  48  64 SW6       29.91F
6HR MIN TEMP:  59; 6HR MAX TEMP:  67;

LUDINGTON      CLOUDY    49  48  97 CALM      29.85R
6HR MIN TEMP:  47; 6HR MAX TEMP:  60;

MARSHALL       CLOUDY    61  49  63 SW5       29.91S
6HR MIN TEMP:  61; 6HR MAX TEMP:  66;

MOUNT PLEASANT RAIN      55  52  90 CALM      29.86F
6HR MIN TEMP:  54; 6HR MAX TEMP:  63; 6HR PCP:  0.04;

MUSKEGON       CLOUDY    57  51  80 SW13      29.86F
6HR MIN TEMP:  57; 6HR MAX TEMP:  66;

SOUTH HAVEN    LGT RAIN  62  52  70 SW10G16   29.89F
$$
MIZ016>042-230700-
NORTHERN LOWER MICHIGAN

CITY           SKY/WX    TMP DP  RH WIND       PRES   REMARKS
ALPENA         CLEAR     47  43  86 S6        29.87F
6HR MIN TEMP:  47; 6HR MAX TEMP:  62; 6HR PCP: TRACE;

BEAVER ISLAND  FOG       39  39  99 CALM      29.85F VSB 1/4
6HR MIN TEMP:  39; 6HR MAX TEMP:  53;

BELLAIRE       FOG       48  46  93 CALM      29.86S VSB 3/4
6HR MIN TEMP:  47; 6HR MAX TEMP:  63;

CADILLAC       CLEAR     47  45  92 CALM      29.85F
CHARLEVOIX     CLOUDY    49  48  95 W5        29.88F
6HR MIN TEMP:  48; 6HR MAX TEMP:  60;

FRANKFORT      MOCLDY    49  44  83 CALM      29.86R
GAYLORD        CLOUDY    51  46  83 SE3       29.86F
6HR MIN TEMP:  50; 6HR MAX TEMP:  61; 6HR PCP:  0.02;

GRAYLING       CLEAR     45  43  93 CALM      29.87S
6HR MIN TEMP:  44; 6HR MAX TEMP:  62;

HARBOR SPRINGS CLOUDY    46  46 100 CALM      29.85F FOG
HOUGHTON LAKE  PTCLDY    53  48  83 W3        29.86F
6HR MIN TEMP:  52; 6HR MAX TEMP:  62;

MANISTEE       CLEAR     43  42  97 CALM      29.85F
OSCODA         CLOUDY    54  51  90 SW6       29.86F
6HR MIN TEMP:  52; 6HR MAX TEMP:  65;

PELLSTON       MOCLDY    47  45  93 NW3       29.86S
6HR MIN TEMP:  47; 6HR MAX TEMP:  58; 6HR PCP:  0.46;

ROGERS CITY    CLOUDY    49  47  92 S3        29.86F
TRAVERSE CITY  MOCLDY    53  46  77 CALM      29.85S
6HR MIN TEMP:  52; 6HR MAX TEMP:  65;

$$
MIZ007>008-015-230700-
EASTERN UPPER MICHIGAN

CITY           SKY/WX    TMP DP  RH WIND       PRES   REMARKS
KINROSS        CLOUDY    46  45  96 S5        29.84F
6HR MIN TEMP:  46; 6HR MAX TEMP:  53; 6HR PCP: TRACE;

MACKINAC ISLAN CLOUDY    47  47 100 CALM      29.85S
6HR MIN TEMP:  47; 6HR MAX TEMP:  52; 6HR PCP:  0.03;

NEWBERRY       CLEAR     40  39  97 CALM      29.84S
6HR MIN TEMP:  40; 6HR MAX TEMP:  51;

S. S. MARIE    LGT RAIN  49  47  93 CALM      29.84S
6HR MIN TEMP:  48; 6HR MAX TEMP:  50; 6HR PCP:  0.06;

MUNISING         N/A     42  41  96 S6        29.84S
6HR MIN TEMP:  42; 6HR MAX TEMP:  48;

$$
MIZ004>006-011>014-085-230700-
CENTRAL UPPER MICHIGAN

CITY           SKY/WX    TMP DP  RH WIND       PRES   REMARKS
MANISTIQUE     FOG       38  35  90 CALM      29.84S VSB 1/2
6HR MIN TEMP:  35; 6HR MAX TEMP:  47; 6HR PCP:  0.03;

ESCANABA       FOG       39  39 100 CALM      29.85S VSB 1/2
6HR MIN TEMP:  39; 6HR MAX TEMP:  51; 6HR PCP: TRACE;

MENOMINEE      CLEAR     43  43 100 CALM      29.85F FOG
6HR MIN TEMP:  43; 6HR MAX TEMP:  55; 6HR PCP: TRACE;

SAWYER-GWINN   FOG       37  36  97 CALM      29.83F VSB 1
6HR MIN TEMP:  35; 6HR MAX TEMP:  53;

$$
MIZ001>003-009>011-084-230700-
WESTERN UPPER MICHIGAN

CITY           SKY/WX    TMP DP  RH WIND       PRES   REMARKS
IRON MOUNTAIN  CLEAR     37  34  89 CALM      29.83S
6HR MIN TEMP:  35; 6HR MAX TEMP:  57;

HOUGHTON       CLOUDY    48  41  76 W6        29.81F
6HR MIN TEMP:  48; 6HR MAX TEMP:  52;

COPPER HARBOR    N/A     45  41  86 N3        29.81S
6HR MIN TEMP:  45; 6HR MAX TEMP:  53;

IRONWOOD       CLOUDY    43  43 100 CALM      29.83S
6HR MIN TEMP:  43; 6HR MAX TEMP:  52; 6HR PCP:  0.01;

$$

ABBREVIATIONS USED IN REMARKS
   TC - TEMPERATURE IN CELSIUS
  WCI - WIND CHILL INDEX
   HX - HEAT INDEX
  VSB - VISIBILITY





USA.gov is the U.S. government's official web portal to all federal, state and local government web resources and services.